Погода в Ольбии

Италия     40°55′23″N   9°29′36″E
темп.,
°C
ветер,
м/с
пор.,
м/с
влажн.,
%
обл.,
%
осадки,
мм/ч
давл.,
гПа
погр.,
м
24 сентября, пт
пт2423:00+19ю24820 0.0 1019130
02:00+18ю22830 0.0 101836
05:00+18ююз22830 0.0 101740
08:00+19ю22780 0.0 101861
11:00+27вюв33520 0.0 1018588
14:00+29вюв65471 0.0 1016822
17:00+27вюв555654 0.0 1015434
20:00+22юв35855 0.0 1016171
25 сентября, сб
сб2523:00+21ю238589 0.0 101768
02:00+20ююв2288100 0.0 101659
05:00+20ю2286100 0.0 101640
08:00+21ю238790 0.0 101697
11:00+29вюв445999 0.0 1017602
14:00+30вюв6557100 0.0 1016658
17:00+28вюв5769100 0.0 1016385
20:00+24юв3591100 0.0 1017142
26 сентября, вс
вс2623:00+23ююз229279 0.0 101839
02:00+22ююв118195 0.0 101818
05:00+22с1176100 0.0 101714
08:00+23сз237689 0.0 101893
11:00+30юв2344100 0.0 1018528
14:00+32сз584399 0.0 1017900
17:00+28ссв125876 0.0 1017517
20:00+23юз117796 0.0 101621
27 сентября, пн
пн2723:00+21з12885 0.0 101749
02:00+21зюз2491100 0.0 1017117
05:00+20з379429 0.0 1016213
08:00+21з4986100 0.0 1016442
11:00+26з6953100 0.0 1017927
14:00+28зсз7104080 0.0 10161306
17:00+26зсз7104628 0.0 10161123
20:00+21з510724 0.0 1017546
28 сентября, вт
вт2823:00+19з36842 0.0 1018264
02:00+17зюз239010 0.0 101862
05:00+17юз23899 0.0 101754
08:00+18зюз228345 0.0 101757
11:00+25ссв335887 0.0 1018817
14:00+26ссв4453100 0.0 1017878
17:00+25с455396 0.0 1016699
20:00+20з347650 0.0 101787